Torna al catalogo

STARLINK-1226

AttivoComunicazioniVLEO
NORAD 45229·PAYLOAD·🇺🇸 United States

Lanciato Feb 17, 2020 da Cape Canaveral Space Force Station

Loading…

Prossimi Passaggi (prossime 24 ore)

TLE

AggiornatoSource: CelesTrak SupGP

Epoca: Sep 14, 2026, 11:34 UTC

1 45229C 20012BD  26257.48243056  .00025374  00000+0  37046-3 0  2571
2 45229  53.1488 182.7061 0002712 110.6438 290.6761 15.55025456    13

Traccia STARLINK-1226 in tempo reale con AllMySat

Download on the App Store